x

Tiree (03100) Weather Station

4:00pm - Sun 16th Dec 2018 All times are GMT.

  • Wind
    21mph
  • Air Temp 45°f
  • Sea Pressure 996mb
  • Tiree
  • Tiree

More Historic Weather Station data

Upgrade to MSW Pro to gain access to the past 30 days of data for over 8000 Wavebouys and Weather Stations around the globe.

Join

Comparision Forecast

View Surf forecast
   
Sun 12/16 4:00pm 21
mph
996mb 45f
3:00pm 18 30 mph 996mb 45f
2:00pm 19 30 mph 995mb 45f
1:00pm 10
mph
995mb 43f
12:00pm 22 31 mph 995mb 43f
11:00am 18
mph
994mb 43f
10:00am 13 34 mph 994mb 43f
9:00am 17
mph
993mb 45f
8:00am 14
mph
992mb 43f
7:00am 15
mph
991mb 43f
6:00am 16
mph
991mb 45f
5:00am 21 36 mph 990mb 41f
4:00am 26 47 mph 988mb 43f
3:00am 36 51 mph 986mb 43f
2:00am 37 59 mph 984mb 43f
1:00am 39 54 mph 983mb 43f
12:00am 31 53 mph 982mb 43f
Sat 12/15 11:00pm 39 49 mph 982mb 43f
10:00pm 39 49 mph 982mb 41f
9:00pm 39 53 mph 982mb 39f
8:00pm 40 49 mph 983mb 41f
7:00pm 40 54 mph 983mb 39f
6:00pm 43 59 mph 984mb 41f
5:00pm 44 56 mph 984mb 39f
4:00pm 44 59 mph 986mb 39f
3:00pm 45 61 mph 988mb 39f
2:00pm 48 66 mph 989mb 37f
1:00pm 46 61 mph 991mb 39f
12:00pm 46 59 mph 993mb 37f
11:00am 44 56 mph 996mb 37f
10:00am 44 55 mph 998mb 37f
9:00am 40 54 mph 1001mb 37f
8:00am 46 55 mph 1002mb 39f
7:00am 44 53 mph 1003mb 41f
6:00am 39 63 mph 1002mb 43f
5:00am 46 60 mph 1003mb 43f
4:00am 44 59 mph 1004mb 43f
3:00am 44 59 mph 1004mb 43f
2:00am 44 57 mph 1005mb 41f
1:00am 41 59 mph 1006mb 43f
12:00am 46 59 mph 1006mb 43f
Fri 12/14 11:00pm 44 59 mph 1007mb 43f
10:00pm 46 59 mph 1008mb 43f
9:00pm 43 57 mph 1009mb 43f
8:00pm 41 56 mph 1009mb 45f
7:00pm 41 56 mph 1009mb 43f
6:00pm 44 56 mph 1010mb 43f
5:00pm 43 55 mph 1011mb 45f
4:00pm 41 55 mph 1011mb 43f
3:00pm 39 52 mph 1011mb 45f
2:00pm 38 52 mph 1013mb 43f
1:00pm 40 52 mph 1012mb 43f
12:00pm 40 53 mph 1014mb 43f
11:00am 40 52 mph 1014mb 43f
10:00am 38 53 mph 1014mb 43f
9:00am 40 52 mph 1014mb 43f
8:00am 38 49 mph 1014mb 43f
7:00am 40 49 mph 1014mb 43f
6:00am 39 49 mph 1014mb 43f
5:00am 39 49 mph 1014mb 43f
4:00am 37 49 mph 1015mb 45f
3:00am 37 49 mph 1015mb 43f
2:00am 38 48 mph 1015mb 45f
1:00am 39 49 mph 1015mb 45f
12:00am 38 49 mph 1015mb 45f
Thu 12/13 11:00pm 38 47 mph 1015mb 43f
10:00pm 36 51 mph 1015mb 45f
9:00pm 39 51 mph 1014mb 45f
8:00pm 40 51 mph 1014mb 45f
7:00pm 40 52 mph 1013mb 43f
6:00pm 38 55 mph 1012mb 43f
5:00pm 40 55 mph 1012mb 45f
4:00pm 44 56 mph 1011mb 45f
3:00pm 40 54 mph 1011mb 43f
2:00pm 43 56 mph 1011mb 43f
1:00pm 40 55 mph 1010mb 43f
12:00pm 43 53 mph 1010mb 43f
11:00am 41 54 mph 1011mb 43f
10:00am 37 52 mph 1010mb 41f
9:00am 40 52 mph 1010mb 41f
8:00am 41 54 mph 1009mb 43f
7:00am 40 55 mph 1009mb 41f
6:00am 40 53 mph 1009mb 41f
5:00am 43 54 mph 1009mb 41f
4:00am 39 53 mph 1009mb 43f
3:00am 39 55 mph 1009mb 43f
2:00am 40 52 mph 1009mb 43f
1:00am 40 55 mph 1008mb 45f
12:00am 41 54 mph 1009mb 45f
Wed 12/12 11:00pm 40 52 mph 1009mb 45f
10:00pm 39 51 mph 1009mb 46f
9:00pm 39 49 mph 1009mb 46f
8:00pm 38 52 mph 1009mb 46f
7:00pm 38 52 mph 1009mb 46f
6:00pm 33 44 mph 1010mb 46f